| time (UTC) | temp F | wind direction | speed MPH | gust MPH | rain 1hr in | rain 24hr in | rain mn in | humidity % | barometer mb |
| 20260506134944 | 53 | 306 | 1.0 | 3.0 | 0.00 | 0.15 | 0.15 | 61 | 1014.4 |
| 20260506134440 | 52 | 205 | 1.0 | 2.0 | 0.00 | 0.15 | 0.15 | 62 | 1014.5 |
| 20260506133937 | 52 | 336 | 2.0 | 5.0 | 0.00 | 0.15 | 0.15 | 60 | 1014.4 |
| 20260506133435 | 52 | 243 | 1.0 | 3.0 | 0.00 | 0.15 | 0.15 | 63 | 1014.4 |
| 20260506132931 | 52 | 316 | 4.0 | 5.0 | 0.00 | 0.15 | 0.15 | 62 | 1014.3 |
| 20260506132428 | 52 | 257 | 2.0 | 3.0 | 0.00 | 0.15 | 0.15 | 67 | 1014.2 |
| 20260506131926 | 52 | 236 | 2.0 | 5.0 | 0.00 | 0.15 | 0.15 | 66 | 1014.0 |
| 20260506131422 | 51 | 9 | 1.0 | 5.0 | 0.00 | 0.15 | 0.15 | 70 | 1014.0 |
| 20260506130919 | 50 | 276 | 1.0 | 5.0 | 0.00 | 0.15 | 0.15 | 70 | 1013.9 |
| 20260506130416 | 50 | 252 | 1.0 | 6.0 | 0.00 | 0.15 | 0.15 | 75 | 1013.9 |
| 20260506125914 | 50 | 200 | 0.0 | 3.0 | 0.00 | 0.15 | 0.15 | 74 | 1014.0 |
| 20260506125412 | 49 | 232 | 1.0 | 5.0 | 0.00 | 0.15 | 0.15 | 75 | 1013.8 |
| 20260506124910 | 49 | 8 | 3.0 | 5.0 | 0.00 | 0.15 | 0.15 | 75 | 1013.9 |
| 20260506124407 | 49 | 253 | 1.0 | 6.0 | 0.00 | 0.15 | 0.15 | 80 | 1013.8 |
| 20260506123905 | 47 | 286 | 2.0 | 6.0 | 0.00 | 0.15 | 0.15 | 82 | 1013.8 |
| 20260506123403 | 47 | 284 | 2.0 | 5.0 | 0.00 | 0.15 | 0.15 | 82 | 1013.7 |
| 20260506122900 | 48 | 250 | 1.0 | 1.0 | 0.00 | 0.15 | 0.15 | 87 | 1013.6 |
| 20260506122356 | 46 | 233 | 0.0 | 2.0 | 0.00 | 0.15 | 0.15 | 89 | 1013.6 |
| 20260506121855 | 46 | 258 | 1.0 | 2.0 | 0.00 | 0.15 | 0.15 | 90 | 1013.5 |
| 20260506121351 | 46 | 269 | 2.0 | 2.0 | 0.00 | 0.15 | 0.15 | 91 | 1013.4 |
| 20260506120848 | 46 | 246 | 1.0 | 3.0 | 0.00 | 0.15 | 0.15 | 91 | 1013.3 |
| 20260506120346 | 45 | 247 | 1.0 | 2.0 | 0.00 | 0.15 | 0.15 | 93 | 1013.1 |
| 20260506115843 | 45 | 241 | 2.0 | 3.0 | 0.00 | 0.15 | 0.15 | 93 | 1013.3 |
| 20260506115341 | 45 | 249 | 2.0 | 3.0 | 0.00 | 0.15 | 0.15 | 94 | 1013.2 |
| 20260506114839 | 45 | 250 | 1.0 | 2.0 | 0.00 | 0.15 | 0.15 | 95 | 1013.2 |
| 20260506114336 | 45 | 239 | 2.0 | 2.0 | 0.00 | 0.15 | 0.15 | 95 | 1013.3 |
| 20260506113835 | 45 | 246 | 3.0 | 3.0 | 0.00 | 0.15 | 0.15 | 95 | 1012.9 |
| 20260506113332 | 45 | 240 | 3.0 | 3.0 | 0.00 | 0.15 | 0.15 | 95 | 1012.9 |
| 20260506112829 | 45 | 240 | 2.0 | 5.0 | 0.00 | 0.15 | 0.15 | 95 | 1013.0 |
| 20260506112326 | 45 | 235 | 2.0 | 3.0 | 0.00 | 0.15 | 0.15 | 95 | 1013.0 |
| 20260506111823 | 44 | 234 | 3.0 | 3.0 | 0.00 | 0.15 | 0.15 | 96 | 1012.9 |
| 20260506111322 | 44 | 239 | 3.0 | 3.0 | 0.00 | 0.15 | 0.15 | 96 | 1012.8 |
| 20260506110819 | 44 | 230 | 2.0 | 3.0 | 0.00 | 0.15 | 0.15 | 96 | 1012.9 |
| 20260506110315 | 44 | 237 | 3.0 | 3.0 | 0.00 | 0.15 | 0.15 | 96 | 1012.8 |
| 20260506105812 | 44 | 247 | 2.0 | 3.0 | 0.00 | 0.15 | 0.15 | 95 | 1012.3 |
| 20260506105309 | 44 | 234 | 3.0 | 3.0 | 0.00 | 0.15 | 0.15 | 95 | 1012.6 |
| 20260506104806 | 44 | 248 | 2.0 | 2.0 | 0.00 | 0.15 | 0.15 | 96 | 1012.2 |
| 20260506104304 | 44 | 238 | 2.0 | 2.0 | 0.00 | 0.15 | 0.15 | 96 | 1012.1 |
| 20260506103801 | 44 | 234 | 2.0 | 3.0 | 0.00 | 0.15 | 0.15 | 96 | 1011.9 |
| 20260506103259 | 44 | 250 | 2.0 | 2.0 | 0.00 | 0.15 | 0.15 | 96 | 1012.0 |
| 20260506102756 | 44 | 242 | 1.0 | 2.0 | 0.00 | 0.15 | 0.15 | 96 | 1011.8 |
| 20260506102254 | 44 | 247 | 1.0 | 2.0 | 0.00 | 0.15 | 0.15 | 96 | 1011.8 |
| 20260506101751 | 44 | 241 | 1.0 | 3.0 | 0.00 | 0.15 | 0.15 | 96 | 1011.9 |
| 20260506101247 | 44 | 255 | 2.0 | 3.0 | 0.00 | 0.15 | 0.15 | 95 | 1011.8 |
| 20260506100745 | 44 | 240 | 3.0 | 5.0 | 0.00 | 0.15 | 0.15 | 96 | 1012.0 |
| 20260506100243 | 44 | 265 | 3.0 | 5.0 | 0.00 | 0.15 | 0.15 | 96 | 1012.1 |
| 20260506095741 | 44 | 244 | 2.0 | 3.0 | 0.00 | 0.15 | 0.15 | 97 | 1012.0 |
| 20260506095238 | 44 | 261 | 4.0 | 5.0 | 0.00 | 0.15 | 0.15 | 96 | 1011.8 |
| 20260506094734 | 44 | 238 | 3.0 | 5.0 | 0.00 | 0.15 | 0.15 | 96 | 1011.9 |
| 20260506094233 | 44 | 241 | 3.0 | 5.0 | 0.00 | 0.15 | 0.15 | 96 | 1012.0 |
| 20260506093731 | 44 | 237 | 3.0 | 3.0 | 0.00 | 0.15 | 0.15 | 96 | 1011.8 |
| 20260506093228 | 44 | 236 | 2.0 | 2.0 | 0.00 | 0.15 | 0.15 | 96 | 1011.4 |
| 20260506092726 | 44 | 219 | 2.0 | 2.0 | 0.00 | 0.15 | 0.15 | 96 | 1011.5 |
| 20260506092223 | 44 | 229 | 1.0 | 1.0 | 0.00 | 0.15 | 0.15 | 96 | 1011.6 |
| 20260506091721 | 44 | 215 | 2.0 | 2.0 | 0.00 | 0.15 | 0.15 | 96 | 1011.6 |
| 20260506091218 | 44 | 232 | 2.0 | 3.0 | 0.00 | 0.15 | 0.15 | 96 | 1011.9 |
| 20260506090716 | 44 | 226 | 2.0 | 3.0 | 0.00 | 0.15 | 0.15 | 96 | 1012.1 |
| 20260506090212 | 44 | 235 | 2.0 | 3.0 | 0.00 | 0.15 | 0.15 | 96 | 1012.0 |
| 20260506085709 | 44 | 234 | 2.0 | 2.0 | 0.00 | 0.15 | 0.15 | 96 | 1012.1 |
| 20260506085205 | 44 | 227 | 1.0 | 2.0 | 0.00 | 0.15 | 0.15 | 96 | 1011.6 |
| 20260506084702 | 44 | 217 | 2.0 | 2.0 | 0.00 | 0.15 | 0.15 | 96 | 1012.0 |
| 20260506084158 | 44 | 249 | 2.0 | 3.0 | 0.00 | 0.15 | 0.15 | 96 | 1011.9 |
| 20260506083655 | 44 | 217 | 1.0 | 2.0 | 0.00 | 0.15 | 0.15 | 96 | 1011.9 |
| 20260506083153 | 44 | 214 | 2.0 | 2.0 | 0.00 | 0.15 | 0.15 | 95 | 1011.8 |
| 20260506082650 | 44 | 212 | 3.0 | 3.0 | 0.07 | 0.15 | 0.15 | 95 | 1011.8 |
| 20260506082145 | 44 | 234 | 2.0 | 2.0 | 0.07 | 0.15 | 0.15 | 95 | 1011.8 |
| 20260506081643 | 44 | 224 | 1.0 | 1.0 | 0.00 | 0.14 | 0.14 | 96 | 1011.8 |
| 20260506081141 | 44 | 225 | 1.0 | 1.0 | 0.00 | 0.14 | 0.14 | 95 | 1011.4 |
| 20260506080638 | 44 | 216 | 2.0 | 2.0 | 0.00 | 0.14 | 0.14 | 96 | 1011.4 |
| 20260506080135 | 44 | 217 | 1.0 | 2.0 | 0.00 | 0.14 | 0.14 | 96 | 1011.6 |
| 20260506073119 | 44 | 252 | 3.0 | 3.0 | 0.00 | 0.14 | 0.14 | 95 | 1011.9 |
| 20260506072615 | 44 | 241 | 2.0 | 2.0 | 0.07 | 0.14 | 0.14 | 96 | 1011.9 |
| 20260506072114 | 44 | 239 | 3.0 | 5.0 | 0.07 | 0.14 | 0.14 | 96 | 1012.1 |
| 20260506071611 | 45 | 234 | 2.0 | 3.0 | 0.00 | 0.13 | 0.13 | 97 | 1012.2 |
| 20260506071108 | 45 | 245 | 3.0 | 3.0 | 0.00 | 0.13 | 0.13 | 97 | 1012.0 |
| 20260506070605 | 45 | 239 | 1.0 | 2.0 | 0.00 | 0.13 | 0.13 | 98 | 1011.9 |
| 20260506062039 | 46 | 246 | 1.0 | 2.0 | 0.07 | 0.09 | 0.09 | 98 | 1012.1 |
| 20260506061535 | 46 | 231 | 0.0 | 1.0 | 0.07 | 0.09 | 0.09 | 98 | 1012.3 |
| 20260506061033 | 46 | 235 | 0.0 | 0.0 | 0.00 | 0.08 | 0.08 | 98 | 1012.1 |
| 20260506060531 | 46 | 235 | 0.0 | 0.0 | 0.00 | 0.08 | 0.08 | 98 | 1012.2 |
| 20260506051000 | 46 | 239 | 0.0 | 0.0 | 0.07 | 0.07 | 0.07 | 98 | 1012.3 |
| 20260506050458 | 46 | 237 | 0.0 | 0.0 | 0.00 | 0.06 | 0.06 | 98 | 1012.1 |
| 20260506044948 | 46 | 331 | 1.0 | 1.0 | 0.07 | 0.05 | 0.05 | 98 | 1012.2 |
| 20260506044446 | 46 | 230 | 0.0 | 1.0 | 0.07 | 0.05 | 0.05 | 98 | 1012.0 |
| 20260506043943 | 46 | 245 | 1.0 | 1.0 | 0.07 | 0.04 | 0.04 | 98 | 1012.0 |
| 20260506043440 | 46 | 222 | 1.0 | 2.0 | 0.07 | 0.04 | 0.04 | 98 | 1012.0 |
| 20260506042938 | 46 | 226 | 2.0 | 3.0 | 0.07 | 0.02 | 0.02 | 98 | 1012.1 |
| 20260506042437 | 47 | 301 | 1.0 | 2.0 | 0.07 | 0.02 | 0.02 | 98 | 1012.0 |
| 20260506041935 | 47 | 254 | 0.0 | 1.0 | 0.00 | 0.01 | 0.01 | 98 | 1012.2 |
| 20260506041432 | 47 | 232 | 0.0 | 0.0 | 0.07 | 0.01 | 0.01 | 98 | 1012.0 |
| 20260506040929 | 47 | 253 | 1.0 | 2.0 | 0.00 | 0.00 | 0.00 | 98 | 1012.1 |
| 20260506040427 | 48 | 247 | 3.0 | 5.0 | 0.00 | 0.00 | 0.00 | 98 | 1011.9 |
| 20260506035923 | 48 | 233 | 1.0 | 2.0 | 0.00 | 0.32 | 0.32 | 99 | 1012.0 |
| 20260506035420 | 48 | 222 | 1.0 | 1.0 | 0.00 | 0.32 | 0.32 | 99 | 1011.9 |
| 20260506034917 | 48 | 226 | 1.0 | 2.0 | 0.00 | 0.32 | 0.32 | 99 | 1012.1 |
| 20260506034414 | 48 | 216 | 1.0 | 2.0 | 0.00 | 0.32 | 0.32 | 99 | 1011.9 |
| 20260506033911 | 48 | 216 | 1.0 | 2.0 | 0.00 | 0.32 | 0.32 | 99 | 1011.9 |
| 20260506033408 | 48 | 210 | 2.0 | 2.0 | 0.00 | 0.32 | 0.32 | 99 | 1011.7 |
| 20260506032905 | 48 | 216 | 1.0 | 2.0 | 0.00 | 0.32 | 0.32 | 99 | 1011.9 |
| 20260506032402 | 48 | 216 | 2.0 | 2.0 | 0.00 | 0.32 | 0.32 | 98 | 1011.8 |
| 20260506031858 | 48 | 219 | 2.0 | 2.0 | 0.00 | 0.32 | 0.32 | 98 | 1012.1 |
| 20260506031356 | 48 | 214 | 2.0 | 2.0 | 0.07 | 0.32 | 0.32 | 98 | 1011.7 |
| 20260506030854 | 48 | 212 | 1.0 | 2.0 | 0.07 | 0.32 | 0.32 | 98 | 1012.2 |
| 20260506030352 | 48 | 222 | 3.0 | 3.0 | 0.00 | 0.31 | 0.31 | 98 | 1012.2 |
| 20260506025848 | 48 | 219 | 2.0 | 3.0 | 0.00 | 0.31 | 0.31 | 98 | 1012.0 |
| 20260506025345 | 48 | 226 | 2.0 | 2.0 | 0.00 | 0.31 | 0.31 | 98 | 1012.1 |
| 20260506024842 | 48 | 212 | 1.0 | 1.0 | 0.00 | 0.31 | 0.31 | 98 | 1012.1 |
| 20260506024338 | 48 | 218 | 1.0 | 3.0 | 0.00 | 0.31 | 0.31 | 98 | 1012.1 |
| 20260506023835 | 48 | 215 | 2.0 | 2.0 | 0.00 | 0.31 | 0.31 | 98 | 1012.1 |
| 20260506023332 | 48 | 214 | 3.0 | 3.0 | 0.00 | 0.31 | 0.31 | 98 | 1012.1 |
| 20260506022828 | 48 | 225 | 2.0 | 2.0 | 0.00 | 0.31 | 0.31 | 98 | 1012.1 |
| 20260506022326 | 48 | 222 | 2.0 | 2.0 | 0.07 | 0.31 | 0.31 | 98 | 1012.1 |
| 20260506021824 | 48 | 225 | 1.0 | 2.0 | 0.07 | 0.31 | 0.31 | 98 | 1012.0 |
| 20260506021320 | 48 | 212 | 2.0 | 3.0 | 0.00 | 0.29 | 0.29 | 98 | 1012.1 |
| 20260506020817 | 48 | 211 | 2.0 | 2.0 | 0.00 | 0.29 | 0.29 | 98 | 1012.2 |
| 20260506020315 | 48 | 218 | 3.0 | 5.0 | 0.07 | 0.29 | 0.29 | 98 | 1012.3 |
| 20260506015813 | 48 | 232 | 3.0 | 5.0 | 0.07 | 0.29 | 0.29 | 98 | 1012.2 |
| 20260506015310 | 48 | 206 | 3.0 | 3.0 | 0.00 | 0.28 | 0.28 | 98 | 1012.0 |
| 20260506014806 | 48 | 214 | 3.0 | 5.0 | 0.07 | 0.28 | 0.28 | 98 | 1012.0 |
| 20260506014304 | 48 | 233 | 3.0 | 3.0 | 0.07 | 0.28 | 0.28 | 97 | 1012.0 |
| 20260506013800 | 48 | 217 | 2.0 | 3.0 | 0.00 | 0.27 | 0.27 | 97 | 1011.8 |
| 20260506013257 | 48 | 212 | 3.0 | 3.0 | 0.00 | 0.27 | 0.27 | 97 | 1011.7 |
| 20260506012754 | 48 | 228 | 3.0 | 3.0 | 0.00 | 0.27 | 0.27 | 97 | 1011.8 |
| 20260506012251 | 48 | 217 | 3.0 | 3.0 | 0.00 | 0.27 | 0.27 | 97 | 1011.4 |
| 20260506011748 | 48 | 211 | 3.0 | 5.0 | 0.00 | 0.27 | 0.27 | 97 | 1011.6 |
| 20260506011244 | 48 | 207 | 3.0 | 3.0 | 0.00 | 0.27 | 0.27 | 97 | 1011.6 |
| 20260506010743 | 48 | 227 | 3.0 | 3.0 | 0.07 | 0.27 | 0.27 | 97 | 1011.7 |
| 20260506010240 | 48 | 215 | 3.0 | 5.0 | 0.07 | 0.27 | 0.27 | 97 | 1011.4 |
| 20260506005737 | 48 | 216 | 2.0 | 3.0 | 0.00 | 0.26 | 0.26 | 97 | 1011.4 |
| 20260506005233 | 48 | 215 | 3.0 | 3.0 | 0.00 | 0.26 | 0.26 | 97 | 1011.4 |
| 20260506004729 | 48 | 232 | 2.0 | 3.0 | 0.00 | 0.26 | 0.26 | 97 | 1011.4 |
| 20260506004227 | 48 | 225 | 3.0 | 3.0 | 0.00 | 0.26 | 0.26 | 97 | 1011.4 |
| 20260506003723 | 48 | 213 | 1.0 | 3.0 | 0.00 | 0.26 | 0.26 | 96 | 1011.4 |
| 20260506003220 | 48 | 223 | 1.0 | 2.0 | 0.00 | 0.26 | 0.26 | 96 | 1011.4 |
| 20260506002715 | 48 | 230 | 2.0 | 2.0 | 0.00 | 0.26 | 0.26 | 96 | 1011.6 |
| 20260506002212 | 48 | 230 | 3.0 | 5.0 | 0.07 | 0.26 | 0.26 | 96 | 1011.4 |
| 20260506001707 | 48 | 223 | 3.0 | 5.0 | 0.00 | 0.25 | 0.25 | 96 | 1011.5 |
| 20260506001206 | 48 | 211 | 3.0 | 5.0 | 0.00 | 0.25 | 0.25 | 96 | 1011.5 |
| 20260506000702 | 48 | 226 | 3.0 | 5.0 | 0.07 | 0.25 | 0.25 | 96 | 1011.3 |
| 20260506000200 | 48 | 225 | 3.0 | 5.0 | 0.07 | 0.25 | 0.25 | 95 | 1011.5 |
| 20260505235657 | 48 | 211 | 3.0 | 5.0 | 0.00 | 0.24 | 0.24 | 95 | 1011.3 |
| 20260505235155 | 48 | 215 | 4.0 | 5.0 | 0.00 | 0.24 | 0.24 | 95 | 1011.3 |
| 20260505234651 | 48 | 216 | 4.0 | 5.0 | 0.00 | 0.24 | 0.24 | 95 | 1011.3 |
| 20260505234148 | 48 | 208 | 3.0 | 3.0 | 0.00 | 0.24 | 0.24 | 95 | 1011.3 |
| 20260505233645 | 49 | 235 | 4.0 | 5.0 | 0.00 | 0.24 | 0.24 | 94 | 1011.4 |
| 20260505233143 | 49 | 215 | 3.0 | 3.0 | 0.07 | 0.24 | 0.24 | 94 | 1011.2 |
| 20260505232640 | 49 | 237 | 3.0 | 3.0 | 0.07 | 0.24 | 0.24 | 94 | 1011.2 |
| 20260505232138 | 49 | 230 | 3.0 | 5.0 | 0.00 | 0.22 | 0.22 | 94 | 1011.2 |
| 20260505231634 | 49 | 229 | 4.0 | 5.0 | 0.00 | 0.22 | 0.22 | 93 | 1011.2 |
| 20260505231133 | 49 | 233 | 2.0 | 3.0 | 0.00 | 0.22 | 0.22 | 93 | 1011.4 |
| 20260505230631 | 49 | 214 | 2.0 | 2.0 | 0.07 | 0.22 | 0.22 | 92 | 1011.1 |
| 20260505230127 | 49 | 241 | 1.0 | 2.0 | 0.07 | 0.22 | 0.22 | 91 | 1011.0 |
| 20260505225623 | 49 | 234 | 1.0 | 2.0 | 0.00 | 0.21 | 0.21 | 92 | 1011.2 |
| 20260505225120 | 50 | 226 | 1.0 | 2.0 | 0.00 | 0.21 | 0.21 | 92 | 1011.1 |
| 20260505224616 | 49 | 209 | 3.0 | 3.0 | 0.07 | 0.21 | 0.21 | 91 | 1011.1 |
| 20260505224114 | 50 | 215 | 1.0 | 1.0 | 0.07 | 0.21 | 0.21 | 91 | 1011.0 |
| 20260505223611 | 50 | 220 | 1.0 | 2.0 | 0.00 | 0.20 | 0.20 | 91 | 1010.9 |
| 20260505223107 | 50 | 225 | 0.0 | 1.0 | 0.00 | 0.20 | 0.20 | 89 | 1011.1 |
| 20260505222603 | 50 | 211 | 3.0 | 3.0 | 0.07 | 0.20 | 0.20 | 89 | 1011.2 |
| 20260505222059 | 50 | 229 | 1.0 | 1.0 | 0.07 | 0.20 | 0.20 | 90 | 1011.1 |
| 20260505221557 | 50 | 235 | 1.0 | 1.0 | 0.00 | 0.19 | 0.19 | 90 | 1011.1 |
| 20260505221053 | 50 | 245 | 3.0 | 3.0 | 0.07 | 0.19 | 0.19 | 89 | 1011.2 |
| 20260505220550 | 50 | 258 | 3.0 | 3.0 | 0.07 | 0.19 | 0.19 | 90 | 1011.3 |
| 20260505220048 | 50 | 235 | 3.0 | 3.0 | 0.00 | 0.18 | 0.18 | 91 | 1011.0 |
| 20260505215546 | 50 | 237 | 1.0 | 1.0 | 0.00 | 0.18 | 0.18 | 91 | 1011.3 |
| 20260505215044 | 50 | 221 | 0.0 | 0.0 | 0.00 | 0.18 | 0.18 | 92 | 1011.1 |
| 20260505214542 | 50 | 259 | 1.0 | 1.0 | 0.07 | 0.18 | 0.18 | 92 | 1011.2 |
| 20260505214038 | 50 | 240 | 1.0 | 2.0 | 0.14 | 0.18 | 0.18 | 92 | 1011.1 |
| 20260505213536 | 50 | 297 | 2.0 | 2.0 | 0.14 | 0.17 | 0.17 | 92 | 1010.8 |
| 20260505213032 | 50 | 283 | 2.0 | 3.0 | 0.14 | 0.15 | 0.15 | 92 | 1010.6 |
| 20260505212528 | 50 | 260 | 1.0 | 3.0 | 0.14 | 0.14 | 0.14 | 93 | 1010.9 |
| 20260505212026 | 50 | 298 | 1.0 | 2.0 | 0.14 | 0.13 | 0.13 | 92 | 1010.8 |
| 20260505211523 | 50 | 321 | 1.0 | 2.0 | 0.14 | 0.12 | 0.12 | 92 | 1011.0 |
| 20260505211020 | 50 | 273 | 1.0 | 2.0 | 0.07 | 0.09 | 0.09 | 92 | 1011.2 |
| 20260505210516 | 50 | 11 | 2.0 | 3.0 | 0.07 | 0.08 | 0.08 | 91 | 1011.1 |
| 20260505210014 | 50 | 336 | 2.0 | 5.0 | 0.14 | 0.07 | 0.07 | 91 | 1011.0 |
| 20260505205512 | 50 | 298 | 2.0 | 5.0 | 0.07 | 0.06 | 0.06 | 92 | 1011.1 |
| 20260505205008 | 50 | 278 | 2.0 | 3.0 | 0.00 | 0.05 | 0.05 | 92 | 1010.8 |
| 20260505204506 | 50 | 254 | 1.0 | 5.0 | 0.07 | 0.05 | 0.05 | 92 | 1010.8 |
| 20260505204003 | 51 | 251 | 3.0 | 3.0 | 0.00 | 0.04 | 0.04 | 91 | 1011.0 |
| 20260505203500 | 50 | 0 | 2.0 | 7.0 | 0.07 | 0.04 | 0.04 | 91 | 1011.1 |
| 20260505202956 | 51 | 346 | 3.0 | 6.0 | 0.07 | 0.04 | 0.04 | 91 | 1011.2 |
| 20260505202453 | 51 | 270 | 4.0 | 6.0 | 0.00 | 0.02 | 0.02 | 91 | 1011.1 |
| 20260505201949 | 51 | 226 | 2.0 | 5.0 | 0.07 | 0.02 | 0.02 | 91 | 1010.9 |
| 20260505201446 | 52 | 287 | 1.0 | 1.0 | 0.00 | 0.01 | 0.01 | 90 | 1011.2 |
| 20260505200944 | 51 | 283 | 0.0 | 2.0 | 0.00 | 0.01 | 0.01 | 90 | 1011.2 |
| 20260505200441 | 51 | 266 | 2.0 | 5.0 | 0.00 | 0.01 | 0.01 | 89 | 1011.2 |
| 20260505195936 | 52 | 261 | 4.0 | 7.0 | 0.00 | 0.01 | 0.01 | 89 | 1011.4 |
| 20260505195434 | 52 | 330 | 4.0 | 5.0 | 0.07 | 0.01 | 0.01 | 88 | 1011.4 |
| 20260505194931 | 52 | 5 | 1.0 | 3.0 | 0.07 | 0.01 | 0.01 | 87 | 1011.2 |
| 20260505194428 | 52 | 331 | 5.0 | 6.0 | 0.00 | 0.00 | 0.00 | 87 | 1011.3 |
| 20260505193928 | 53 | 261 | 6.0 | 8.0 | 0.00 | 0.00 | 0.00 | 88 | 1011.5 |
| 20260505193426 | 53 | 249 | 3.0 | 6.0 | 0.00 | 0.00 | 0.00 | 89 | 1011.5 |
| 20260505192924 | 53 | 242 | 5.0 | 6.0 | 0.00 | 0.00 | 0.00 | 88 | 1011.5 |
| 20260505192422 | 53 | 245 | 5.0 | 7.0 | 0.00 | 0.00 | 0.00 | 88 | 1011.5 |
| 20260505191919 | 53 | 236 | 5.0 | 6.0 | 0.00 | 0.00 | 0.00 | 89 | 1011.4 |
| 20260505191418 | 53 | 239 | 5.0 | 7.0 | 0.00 | 0.00 | 0.00 | 88 | 1011.4 |
| 20260505190914 | 53 | 219 | 5.0 | 7.0 | 0.00 | 0.00 | 0.00 | 87 | 1011.2 |
| 20260505190410 | 53 | 229 | 4.0 | 8.0 | 0.00 | 0.00 | 0.00 | 87 | 1011.5 |
| 20260505185905 | 53 | 248 | 4.0 | 6.0 | 0.00 | 0.00 | 0.00 | 86 | 1011.3 |
| 20260505185402 | 53 | 255 | 5.0 | 7.0 | 0.00 | 0.00 | 0.00 | 85 | 1011.1 |
| 20260505184858 | 53 | 231 | 6.0 | 7.0 | 0.00 | 0.00 | 0.00 | 82 | 1011.2 |
| 20260505184355 | 53 | 231 | 4.0 | 5.0 | 0.00 | 0.00 | 0.00 | 83 | 1010.6 |
| 20260505183852 | 53 | 242 | 6.0 | 7.0 | 0.00 | 0.00 | 0.00 | 82 | 1011.1 |
| 20260505183349 | 53 | 250 | 6.0 | 7.0 | 0.00 | 0.00 | 0.00 | 85 | 1011.2 |
| 20260505182846 | 54 | 235 | 6.0 | 7.0 | 0.00 | 0.00 | 0.00 | 87 | 1011.4 |
| 20260505182343 | 54 | 228 | 5.0 | 7.0 | 0.00 | 0.00 | 0.00 | 85 | 1011.3 |
| 20260505181839 | 54 | 234 | 5.0 | 6.0 | 0.00 | 0.00 | 0.00 | 82 | 1011.0 |
| 20260505181336 | 54 | 227 | 4.0 | 5.0 | 0.00 | 0.00 | 0.00 | 81 | 1010.9 |
| 20260505180833 | 54 | 223 | 3.0 | 6.0 | 0.00 | 0.00 | 0.00 | 79 | 1010.9 |
| 20260505180330 | 55 | 241 | 4.0 | 5.0 | 0.00 | 0.00 | 0.00 | 77 | 1010.9 |
| 20260505175826 | 55 | 222 | 5.0 | 6.0 | 0.00 | 0.00 | 0.00 | 73 | 1010.5 |
| 20260505175323 | 55 | 238 | 5.0 | 8.0 | 0.00 | 0.00 | 0.00 | 71 | 1010.3 |
| 20260505174819 | 56 | 210 | 6.0 | 8.0 | 0.00 | 0.00 | 0.00 | 69 | 1010.4 |
| 20260505174317 | 57 | 205 | 5.0 | 8.0 | 0.00 | 0.00 | 0.00 | 70 | 1010.6 |
| 20260505173812 | 57 | 219 | 5.0 | 7.0 | 0.00 | 0.00 | 0.00 | 72 | 1010.3 |
| 20260505173309 | 57 | 241 | 5.0 | 6.0 | 0.00 | 0.00 | 0.00 | 74 | 1010.3 |
| 20260505172806 | 57 | 229 | 5.0 | 5.0 | 0.00 | 0.00 | 0.00 | 75 | 1010.2 |
| 20260505172306 | 58 | 216 | 5.0 | 6.0 | 0.00 | 0.00 | 0.00 | 71 | 1010.4 |
| 20260505171758 | 58 | 253 | 3.0 | 7.0 | 0.00 | 0.00 | 0.00 | 66 | 1010.5 |
| 20260505171255 | 58 | 243 | 3.0 | 3.0 | 0.00 | 0.00 | 0.00 | 67 | 1010.4 |
| 20260505170752 | 58 | 248 | 4.0 | 6.0 | 0.00 | 0.00 | 0.00 | 68 | 1010.4 |
| 20260505170249 | 57 | 229 | 3.0 | 5.0 | 0.00 | 0.00 | 0.00 | 69 | 1010.4 |
| 20260505165744 | 58 | 249 | 5.0 | 6.0 | 0.00 | 0.00 | 0.00 | 66 | 1010.6 |
| 20260505165240 | 58 | 272 | 4.0 | 9.0 | 0.00 | 0.00 | 0.00 | 64 | 1010.6 |
| 20260505164736 | 58 | 272 | 5.0 | 6.0 | 0.00 | 0.00 | 0.00 | 67 | 1010.6 |
| 20260505164233 | 58 | 264 | 5.0 | 8.0 | 0.00 | 0.00 | 0.00 | 68 | 1010.6 |
| 20260505163731 | 59 | 272 | 3.0 | 7.0 | 0.00 | 0.00 | 0.00 | 66 | 1010.8 |
| 20260505163230 | 59 | 274 | 5.0 | 5.0 | 0.00 | 0.00 | 0.00 | 64 | 1010.6 |
| 20260505162726 | 60 | 277 | 4.0 | 6.0 | 0.00 | 0.00 | 0.00 | 64 | 1010.7 |
| 20260505162223 | 60 | 263 | 5.0 | 9.0 | 0.00 | 0.00 | 0.00 | 69 | 1010.6 |
| 20260505161720 | 60 | 258 | 5.0 | 9.0 | 0.00 | 0.00 | 0.00 | 71 | 1010.7 |
| 20260505161218 | 60 | 259 | 6.0 | 13.0 | 0.00 | 0.00 | 0.00 | 71 | 1010.6 |
| 20260505160715 | 60 | 251 | 6.0 | 9.0 | 0.00 | 0.00 | 0.00 | 73 | 1010.5 |
| 20260505160213 | 59 | 288 | 6.0 | 13.0 | 0.00 | 0.00 | 0.00 | 75 | 1010.5 |
| 20260505153152 | 60 | 241 | 6.0 | 15.0 | 0.00 | 0.00 | 0.00 | 78 | 1010.3 |
| 20260505152649 | 60 | 248 | 11.0 | 15.0 | 0.00 | 0.00 | 0.00 | 77 | 1010.2 |
| 20260505152144 | 60 | 258 | 12.0 | 18.0 | 0.00 | 0.00 | 0.00 | 77 | 1010.2 |
| 20260505151640 | 61 | 265 | 13.0 | 16.0 | 0.00 | 0.00 | 0.00 | 76 | 1010.1 |
| 20260505151138 | 61 | 257 | 6.0 | 13.0 | 0.00 | 0.00 | 0.00 | 78 | 1010.2 |
| 20260505150633 | 60 | 269 | 14.0 | 16.0 | 0.00 | 0.00 | 0.00 | 78 | 1010.2 |
| 20260505150131 | 60 | 245 | 15.0 | 16.0 | 0.00 | 0.00 | 0.00 | 78 | 1010.1 |
| 20260505140559 | 61 | 241 | 10.0 | 15.0 | 0.00 | 0.00 | 0.00 | 78 | 1007.8 |